Location: Tr�vern
(48.0333°N, 4.6000°W)
Time: 02:09:42
(UTC+00:00)

IRAS Rocket - Pass Details

Date: 14 July 2020
Orbit: 848 x 877 km, 100.1° (Epoch: 04 August)

Event Time Altitude Azimuth Distance (km) Brightness Sun altitude
Exits shadow 01:54:11 27° 180° (S) 1,579 5.1 -17.5°
Maximum altitude 01:57:13 67° 256° (WSW) 923 4.2 -17.3°
Drops below altitude 10° 02:02:43 10° 339° (NNW) 2,492 7.3 -16.9°
Sets 02:05:08 0° 342° (NNW) 3,435 8.1 -16.8°
